Regional Weather Roundup
Issued by NWS Kansas City/Pleasant Hill, MO

Home | Current Version | Previous Version | Text Only | Print | Product List | Glossary On
Versions: 1 2 3 4 5 6 7 8 9 10 11 12 13 14 15 16 17 18 19 20 21 22 23 24 25 26 27 28 29 30 31 32 33 34 35 36 37 38 39 40 41 42 43 44 45 46 47 48 49 50
000
ASUS43 KEAX 240610
RWREAX

WEATHER ROUNDUP FOR EASTERN KANSAS AND NORTHWEST MISSOURI
NATIONAL WEATHER SERVICE KANSAS CITY/PLEASANT HILL MO
100 AM CDT MON JUL 24 2017

KSZ040-057-103>105-MOZ028-029-037-043-240700-
...KANSAS CITY METROPOLITAN AREA...

CITY           SKY/WX    TMP DP  RH WIND       PRES   REMARKS
K.C. INTL      CLEAR     76  68  76 NE8       29.96S
6HR MIN TEMP:  75; 6HR MAX TEMP:  90;

K.C. DOWNTOWN  PTCLDY    80  67  64 NE8       29.94S
6HR MIN TEMP:  80; 6HR MAX TEMP:  91;

LEES SUMMIT    PTCLDY    78  71  79 NE8       29.96S
6HR MIN TEMP:  78; 6HR MAX TEMP:  90;

OLATHE - IXD   PTCLDY    76  73  91 N6        29.96S
6HR MIN TEMP:  76; 6HR MAX TEMP:  88;

OLATHE - OJC   PTCLDY    78  72  81 NE8       29.96R
6HR MIN TEMP:  78; 6HR MAX TEMP:  88;

LAWRENCE       CLEAR     79  71  76 VRB3      29.95S

$$

MOZ001>008-011>017-020>025-030>033-038>040-044>046-053-054-240700-
...NORTHERN AND CENTRAL MISSOURI...

CITY           SKY/WX    TMP DP  RH WIND       PRES   REMARKS
ST. JOSEPH     CLEAR     71  67  87 NW5       29.97S
6HR MIN TEMP:  71; 6HR MAX TEMP:  87;

MOSBY          CLEAR     73  64  73 N3        29.95S
WHITEMAN AFB   PTCLDY    78  78 100 NW6       29.92R
6HR MIN TEMP:  77; 6HR MAX TEMP:  88;

CLINTON        CLEAR     73  73 100 CALM      29.93S
SEDALIA        CLEAR     78  76  93 W5        29.93S
6HR MIN TEMP:  77; 6HR MAX TEMP:  87;

WARSAW         NOT AVBL
CHILLICOTHE      N/A     73  66  78 N3        29.97S
6HR MIN TEMP:  73; 6HR MAX TEMP:  90;

KIRKSVILLE     CLEAR     68  63  84 N6        29.96F
6HR MIN TEMP:  67; 6HR MAX TEMP:  88;


$$

MOZ041-047>049-056>058-063>065-088>090-097-240700-
...EASTERN AND SOUTHERN MISSOURI...

CITY           SKY/WX    TMP DP  RH WIND       PRES   REMARKS
ST. LOUIS INTL PTCLDY    80  71  74 N8        29.91R
6HR MIN TEMP:  80; 6HR MAX TEMP:  92;

SPIRIT OF STL  PTCLDY    74  73  97 W5        29.90R
COLUMBIA       PTCLDY    74  72  93 NE3       29.92R
JEFFERSON CITY PTCLDY    75  72  90 E3        29.91R
ROLLA          PTCLDY    72  69  90 SW3       29.93R
OSAGE BEACH    CLOUDY    73  69  87 CALM      29.94R
SPRINGFIELD    PTCLDY    75  71  87 CALM      29.96R
BRANSON        CLOUDY    75  68  78 CALM      29.97F
JOPLIN         PTCLDY    76  72  87 S3        29.96R
WEST PLAINS    CLOUDY    72  67  84 CALM      29.95F

$$

IAZ060-094-KSZ022-034>040-054-083-096-NEZ052-066-093-240700-
...KANSAS...SOUTHEAST NEBRASKA AND IOWA...

CITY           SKY/WX    TMP DP  RH WIND       PRES   REMARKS
TOPEKA         PTCLDY    79  73  82 NE5       29.96R
6HR MIN TEMP:  79; 6HR MAX TEMP:  90;

MANHATTAN      CLEAR     80  68  66 NE10      29.97R
EMPORIA        CLEAR     74  72  93 E3        29.96R
CHANUTE        CLEAR     74  72  93 CALM      29.95R
WICHITA        PTCLDY    79  70  74 E7        29.96R
OMAHA          CLEAR     71  61  70 CALM      30.01S
LINCOLN        CLEAR     66  62  87 N6        30.01F
FALLS CITY     CLEAR     71  63  75 E3        29.98S
LAMONI         CLEAR     67  61  81 N6        29.99S
DES MOINES     PTCLDY    69  60  73 N5        29.98S

$$




USA.gov is the U.S. government's official web portal to all federal, state and local government web resources and services.